Northolt, United Kingdom

8:53 AM BST on March 28, 2017 (GMT +0100)
Northolt Air Base

Weather History for EGWU - October, 2013

Change the Weather History Date:

Sunday, October 6, 2013

  Actual Average Record
Temperature  
Mean Temperature 54 °F -  
Max Temperature 67 °F 56 °F 69 °F (1997)
Min Temperature 41 °F 45 °F 35 °F (1999)
Degree Days  
Heating Degree Days 11    
Growing Degree Days 4 (Base 50)    
Moisture  
Dew Point 47 °F    
Average Humidity 78    
Maximum Humidity 100    
Minimum Humidity 39    
Precipitation  
Precipitation 0.00 in - - ()
Sea Level Pressure  
Sea Level Pressure 30.28 in    
Wind  
Wind Speed 3 mph ()    
Max Wind Speed 8 mph    
Max Gust Speed -    
Visibility 6.1 miles    
Events Fog    
Averages and records for this station are not official NWS values.
T = Trace of Precipitation, MM = Missing Value Source: Averaged Metar Reports

Daily Weather History Graph

Daily Weather History Graph

Search for Another Location

Airport or City:

Trip Planner

Search our weather history database for the weather conditions in past years. The results will help you decide how hot, cold, wet, or windy it might be!

Date:

Astronomy

Oct. 06, 2013 Rise Set
Actual Time 7:10 AM BST 6:27 PM BST
Civil Twilight 6:37 AM BST 7:01 PM BST
Nautical Twilight 5:58 AM BST 7:39 PM BST
Astronomical Twilight 5:19 AM BST 8:18 PM BST
Moon 8:53 AM BST (10/6) 7:00 PM BST (10/6)
Length of Visible Light 12h 23m
Length of Day
11h 17m
New Moon, 2% of the Moon is Illuminated
Oct 6
New Moon
Oct 12
First Quarter
Oct 19
Full
Oct 27
Last Quarter
Nov 3
New

Hourly Weather History & Observations

Time (BST) Temp. Windchill Dew Point Humidity Pressure Visibility Wind Dir Wind Speed Gust Speed Precip Events Conditions
12:50 AM 51 °F - 49 °F 92% 30.27 in 4 mi NNW 3.5 mph - -   Scattered Clouds
12:50 AM 51.8 °F - 50.0 °F 94% 30.24 in 4.3 mi NNW 3.5 mph - N/A   Partly Cloudy
1:50 AM 48.2 °F - 48.2 °F 100% 30.27 in 0.1 mi NW 3.5 mph - N/A   Unknown
2:50 AM 46.4 °F 45.2 °F 46.4 °F 100% 30.27 in - WNW 3.5 mph - N/A   Unknown
3:50 AM 46.4 °F - 44.6 °F 93% 30.27 in 5.6 mi Calm Calm - N/A   Unknown
4:50 AM 44.6 °F - 42.8 °F 93% 30.27 in 6.2 mi West 1.2 mph - N/A   Unknown
5:50 AM 42.8 °F - 42.8 °F 100% 30.27 in 6.2 mi WNW 1.2 mph - N/A   Unknown
6:50 AM 43 °F - 41 °F 91% 30.30 in 2 mi NW 1.2 mph - - Fog Light Fog
6:50 AM 42.8 °F - 41.0 °F 93% 30.27 in 5.0 mi NW 1.2 mph - N/A Fog Shallow Fog
7:50 AM 42.8 °F - 41.0 °F 93% 30.27 in 5.0 mi NNW 1.2 mph - N/A Fog Fog
8:50 AM 46.4 °F - 44.6 °F 93% 30.30 in - Calm Calm - N/A   Clear
9:50 AM 54 °F - 52 °F 90% 30.31 in 12 mi SSW 1.2 mph - -   Scattered Clouds
9:50 AM 53.6 °F - 51.8 °F 94% 30.30 in - SSW 1.2 mph - N/A   Clear
10:50 AM 60.8 °F - 51.8 °F 72% 30.30 in 6.2 mi SW 2.3 mph - N/A   Mostly Cloudy
11:50 AM 62.6 °F - 50.0 °F 63% 30.30 in 6.2 mi WSW 5.8 mph - N/A   Mostly Cloudy
12:50 PM 65 °F - 49 °F 45% 30.31 in 22 mi WSW 8.1 mph - -   Scattered Clouds
12:50 PM 64.4 °F - 48.2 °F 56% 30.30 in 6.2 mi WSW 8.1 mph - N/A   Mostly Cloudy
1:50 PM 66.2 °F - 50.0 °F 56% 30.27 in 6.2 mi West 5.8 mph - N/A   Scattered Clouds
2:50 PM 64.4 °F - 48.2 °F 56% 30.27 in 6.2 mi West 4.6 mph - N/A   Mostly Cloudy
3:50 PM 67 °F - 48 °F 39% 30.28 in 31 mi WSW 8.1 mph - -   Partly Cloudy
3:50 PM 68.0 °F - 48.2 °F 49% 30.27 in 6.2 mi WSW 8.1 mph - N/A   Mostly Cloudy
4:50 PM 66.2 °F - 46.4 °F 49% 30.27 in 6.2 mi WSW 6.9 mph - N/A   Mostly Cloudy
5:50 PM 62.6 °F - 48.2 °F 59% 30.27 in 6.2 mi West 5.8 mph - N/A   Mostly Cloudy
6:50 PM 60 °F - 49 °F 58% 30.28 in 25 mi WSW 2.3 mph - -   Clear
6:50 PM 59.0 °F - 50.0 °F 72% 30.27 in - WSW 2.3 mph - N/A   Clear
7:50 PM 57.2 °F - 50.0 °F 77% 30.27 in - SSW 1.2 mph - N/A   Clear
8:50 PM 53.6 °F - 48.2 °F 82% 30.27 in - Calm Calm - N/A   Clear
9:50 PM 51 °F - 47 °F 81% 30.30 in 16 mi Calm Calm - -   Clear
9:50 PM 50.0 °F - 46.4 °F 87% 30.30 in - Calm Calm - N/A   Clear
10:50 PM 48.2 °F - 46.4 °F 93% 30.30 in - West 1.2 mph - N/A   Clear
11:50 PM 48.2 °F - 48.2 °F 100% 30.30 in 6.2 mi Calm Calm - N/A   Unknown